History for Ft Lauderdale, FL

Saturday, February 18, 2017 — View Current Conditions

Jump to Data:

Date:
Airport Code:
Recently Viewed Airport Codes: KFLL
Daily Summary
  Actual Average Record
Temperature
Mean Temperature 72°F 71°F  
Max Temperature 80°F 78°F 87°F (1959)
Min Temperature 64°F 64°F 38°F (1996)
Degree Days
Heating Degree Days 0 1  
Month to date heating degree days 0 18  
Since 1 July heating degree days 29 98  
Cooling Degree Days 7 7  
Month to date cooling degree days 141 117  
Year to date cooling degree days 354 287  
Growing Degree Days 22 (Base 50)    
Moisture
Dew Point 64°F    
Average Humidity 73    
Maximum Humidity 87    
Minimum Humidity 58    
Precipitation
Precipitation 0.00 in 0.10 in 1.54 in (1994)
Month to date precipitation 0.13 2.04  
Year to date precipitation 1.84 5.67  
Snow
Snow 0.00 in in in ()
Month to date snowfall 0.0  
Since 1 July snowfall 0.0  
Snow Depth 0.00 in    
Sea Level Pressure
Sea Level Pressure 30.02 in    
Wind
Wind Speed 7 mph (SSE)    
Max Wind Speed 16 mph    
Max Gust Speed 20 mph    
Visibility 10 miles    
Events      
T = Trace of Precipitation, MM = Missing Value Source: NWS Daily Summary

Show full METARS

(help) - Comma Delimited File

Hourly Observations

Time(EST) Temperature Dew Point Humidity Sea Level Pressure Visibility Wind Direction Wind Speed Gust Speed Precipitation Events Conditions
12:53 AM 68.0°F 59.0°F 73% 30.03 in 10.0 miles SE 5.8 mph - N/A   Mostly Cloudy
1:53 AM 68.0°F 59.0°F 73% 30.01 in 10.0 miles SE 4.6 mph - N/A   Scattered Clouds
2:53 AM 66.0°F 57.9°F 75% 30.01 in 10.0 miles Calm Calm - N/A   Scattered Clouds
3:53 AM 66.0°F 59.0°F 78% 30.01 in 10.0 miles Calm Calm - N/A   Scattered Clouds
4:53 AM 66.9°F 60.1°F 79% 30.01 in 10.0 miles Calm Calm - N/A   Scattered Clouds
5:53 AM 64.9°F 60.1°F 84% 30.03 in 10.0 miles Calm Calm - N/A   Scattered Clouds
6:53 AM 66.0°F 60.1°F 81% 30.03 in 10.0 miles Calm Calm - N/A   Scattered Clouds
7:53 AM 66.9°F 61.0°F 81% 30.03 in 10.0 miles Calm Calm - N/A   Scattered Clouds
8:53 AM 75.0°F 63.0°F 66% 30.05 in 10.0 miles SE 11.5 mph - N/A   Mostly Cloudy
9:53 AM 77.0°F 64.0°F 64% 30.06 in 10.0 miles SSE 11.5 mph - N/A   Mostly Cloudy
10:53 AM 78.1°F 64.9°F 64% 30.06 in 10.0 miles SE 15.0 mph - N/A   Mostly Cloudy
11:53 AM 78.1°F 64.9°F 64% 30.05 in 10.0 miles SSE 12.7 mph - N/A   Mostly Cloudy
12:53 PM 77.0°F 64.9°F 66% 30.04 in 10.0 miles SSE 11.5 mph - N/A   Mostly Cloudy
1:53 PM 78.1°F 66.0°F 66% 30.01 in 10.0 miles SSE 10.4 mph - N/A   Overcast
2:25 PM 79.0°F 66.0°F 64% 30.00 in 10.0 miles South 9.2 mph - N/A   Mostly Cloudy
2:42 PM 79.0°F 66.0°F 64% 30.00 in 10.0 miles SE 12.7 mph - N/A   Mostly Cloudy
2:53 PM 79.0°F 64.9°F 62% 29.99 in 10.0 miles SSE 11.5 mph - N/A   Mostly Cloudy
3:53 PM 80.1°F 64.9°F 60% 29.98 in 10.0 miles SSE 11.5 mph - N/A   Mostly Cloudy
4:53 PM 78.1°F 66.0°F 66% 29.99 in 10.0 miles SSE 10.4 mph - N/A   Mostly Cloudy
5:53 PM 77.0°F 66.0°F 69% 29.99 in 10.0 miles SSE 10.4 mph - N/A   Mostly Cloudy
6:53 PM 75.9°F 66.0°F 71% 30.00 in 10.0 miles SSE 8.1 mph - N/A   Mostly Cloudy
7:53 PM 75.9°F 68.0°F 76% 30.01 in 10.0 miles South 9.2 mph - N/A   Mostly Cloudy
8:53 PM 75.0°F 68.0°F 79% 30.03 in 10.0 miles South 5.8 mph - N/A   Mostly Cloudy
9:53 PM 75.0°F 68.0°F 79% 30.04 in 10.0 miles SSW 4.6 mph - N/A   Scattered Clouds
10:53 PM 73.9°F 69.1°F 85% 30.04 in 10.0 miles South 4.6 mph - N/A   Mostly Cloudy
11:53 PM 73.0°F 70.0°F 90% 30.02 in 10.0 miles South 4.6 mph - N/A   Mostly Cloudy